Temperature
7 7 7 7 6 6 6 6 6 6 5 5 5 5 5 5 5 5 5 5 5 4 4 4 4 4 4 4 4 4 4 3 3 3 3 3 3 4 4 4 4 4 4
7 7 6 6 6 6 6 6 6 5 5 5 5 5 5 4 4 4 4 4 4 4 4 4 4 3 3 3 3 3 3 2 2 2 3 3 3 3 3 3 3 3 3
7 6 6 6 6 6 6 6 5 5 5 5 4 4 4 4 4 4 4 4 4 3 3 3 3 3 3 2 2 2 2 2 1 1 1 2 2 2 2 2 2 2 2
6 6 6 6 6 6 6 5 5 5 5 5 4 4 4 4 4 3 3 3 3 3 2 2 2 2 2 2 2 1 1 1 1 1 1 1 1 1 1 1 1 2 2
6 6 6 6 6 6 5 5 5 5 4 4 4 4 3 3 3 3 3 3 2 2 2 2 1 1 1 1 0 0 0 0 0 -0 -0 -0 -0 -0 -0 -0 0 1 1
6 6 6 6 5 5 5 5 5 4 4 4 4 3 3 3 3 3 2 2 2 2 1 1 1 0 0 -0 -0 -1 -1 -1 -1 -1 -1 -1 -1 -1 -1 -1 -1 -1 -1
6 6 5 5 5 5 5 4 4 4 4 4 3 3 3 3 2 2 2 2 1 1 1 0 0 -0 -1 -1 -1 -1 -1 -2 -2 -2 -2 -2 -2 -2 -2 -2 -2 -3 -3
6 5 5 5 5 4 4 4 4 4 4 3 3 3 2 2 2 2 1 1 1 0 -0 -0 -1 -1 -1 -2 -2 -2 -2 -2 -2 -3 -3 -3 -3 -3 -3 -3 -3 -3 -3
5 5 5 5 4 4 4 4 3 3 3 3 2 2 2 2 1 1 1 1 0 -0 -1 -1 -1 -2 -2 -2 -2 -2 -2 -2 -3 -3 -3 -3 -3 -4 -4 -4 -4 -4 -4
5 5 4 4 4 4 3 3 3 3 2 2 2 1 1 1 1 0 0 -0 -0 -1 -1 -2 -2 -2 -3 -3 -3 -3 -3 -3 -3 -3 -3 -3 -4 -4 -4 -5 -5 -5 -5
4 4 4 4 3 3 3 3 2 2 2 1 1 1 1 0 0 -0 -1 -1 -1 -1 -2 -2 -3 -3 -3 -3 -4 -4 -4 -4 -4 -4 -4 -4 -4 -4 -5 -5 -5 -6 -6
4 4 3 3 3 3 3 2 2 2 1 1 1 0 -0 -0 -0 -1 -1 -1 -2 -2 -2 -3 -3 -3 -4 -4 -4 -4 -4 -4 -4 -4 -5 -5 -5 -5 -5 -6 -6 -6 -6
3 3 3 3 2 2 2 2 2 1 1 1 0 -0 -0 -1 -1 -1 -2 -2 -2 -3 -3 -3 -4 -4 -4 -4 -4 -5 -5 -5 -5 -5 -5 -5 -6 -6 -6 -6 -6 -6 -6
3 3 3 2 2 2 2 1 1 1 1 0 -0 -0 -1 -1 -2 -2 -2 -2 -3 -3 -3 -4 -4 -4 -4 -5 -5 -5 -5 -5 -6 -6 -6 -6 -6 -6 -6 -7 -7 -7 -6
2 2 2 2 2 1 1 1 1 1 0 -0 -1 -1 -1 -2 -2 -2 -3 -3 -3 -3 -4 -4 -4 -4 -5 -5 -5 -5 -6 -6 -6 -6 -7 -7 -7 -7 -7 -7 -7 -7 -7
2 2 1 1 1 1 1 0 0 -0 -0 -1 -1 -2 -2 -2 -2 -3 -3 -3 -3 -4 -4 -4 -5 -5 -5 -6 -6 -6 -6 -6 -7 -7 -7 -7 -7 -8 -8 -8 -8 -8 -8
1 1 1 1 1 0 0 0 0 -0 -1 -1 -1 -2 -2 -2 -3 -3 -3 -4 -4 -4 -5 -5 -5 -5 -6 -6 -6 -6 -6 -7 -7 -7 -8 -8 -8 -8 -8 -8 -8 -8 -8
1 1 0 0 0 -0 -0 -0 -1 -1 -1 -1 -2 -2 -2 -3 -3 -3 -4 -4 -4 -5 -5 -5 -5 -6 -6 -6 -6 -7 -7 -7 -7 -8 -8 -8 -8 -9 -9 -9 -9 -9 -9
1 0 -0 -0 -1 -1 -1 -1 -1 -2 -2 -2 -2 -2 -3 -3 -3 -3 -4 -4 -4 -5 -5 -5 -6 -6 -6 -6 -7 -7 -7 -8 -8 -8 -8 -9 -9 -9 -9 -9 -9 -9 -9
0 -0 -1 -1 -1 -1 -2 -2 -2 -2 -2 -2 -2 -3 -3 -3 -4 -4 -4 -4 -5 -5 -5 -6 -6 -6 -6 -7 -7 -7 -8 -8 -8 -8 -9 -9 -9 -9 -9 -9 -9 -10 -9
-0 -0 -1 -1 -1 -2 -2 -2 -2 -2 -2 -2 -3 -3 -4 -4 -4 -4 -4 -5 -5 -5 -6 -6 -6 -6 -7 -7 -7 -8 -8 -8 -8 -9 -9 -9 -9 -9 -9 -9 -10 -10 -10
-0 -1 -1 -1 -2 -2 -2 -2 -2 -3 -3 -3 -3 -3 -4 -4 -4 -4 -5 -5 -5 -6 -6 -6 -6 -7 -7 -7 -7 -8 -8 -8 -8 -9 -9 -9 -9 -9 -9 -9 -9 -10 -10
-1 -1 -1 -2 -2 -2 -2 -2 -3 -3 -3 -3 -4 -4 -4 -4 -4 -5 -5 -5 -6 -6 -6 -6 -7 -7 -7 -7 -8 -8 -8 -8 -9 -9 -9 -9 -9 -9 -9 -10 -10 -10 -10
-1 -1 -2 -2 -2 -2 -2 -3 -3 -3 -3 -3 -4 -4 -4 -4 -5 -5 -5 -6 -6 -6 -6 -7 -7 -7 -7 -8 -8 -8 -8 -9 -9 -9 -9 -9 -9 -9 -9 -9 -9 -10 -10
-1 -2 -2 -2 -2 -2 -3 -3 -3 -3 -3 -4 -4 -4 -4 -5 -5 -5 -5 -6 -6 -6 -7 -7 -7 -7 -8 -8 -8 -8 -8 -9 -9 -9 -9 -9 -9 -9 -9 -9 -10 -10 -10
-2 -2 -2 -3 -3 -3 -3 -3 -3 -3 -3 -4 -4 -4 -5 -5 -5 -5 -6 -6 -6 -6 -7 -7 -7 -8 -8 -8 -8 -8 -8 -9 -9 -9 -9 -9 -9 -9 -9 -10 -10 -10 -10
Wind_Speed
5 4 4 3 3 3 2 2 2 2 2 2 2 2 3 3 3 3 4 4 4 4 4 4 4 4 3 3 3 4 3 3 6 5 3 4 5 5 7 8 8 7 8
5 4 4 4 4 3 3 3 2 2 2 2 2 2 2 3 3 3 4 4 4 4 4 4 5 4 4 4 4 4 4 4 4 7 5 4 5 5 5 5 7 8 8
5 5 5 5 4 4 4 3 2 2 2 2 2 2 2 2 2 3 3 3 3 3 3 4 4 4 5 4 4 4 4 5 4 4 5 4 4 5 5 5 6 5 9
5 6 6 6 5 5 4 3 3 2 2 1 1 1 1 1 2 3 3 3 3 3 2 2 3 3 4 5 4 5 5 5 5 4 5 5 5 5 4 5 6 5 7
6 6 6 5 5 4 4 4 3 3 2 2 1 1 1 1 1 2 3 3 2 3 3 3 2 3 4 4 4 4 4 4 4 4 5 5 5 5 5 5 6 7 7
6 7 6 5 5 5 5 4 4 3 3 2 2 1 1 1 1 2 2 2 2 2 3 3 3 3 5 7 7 6 5 4 4 4 4 5 6 5 5 6 6 7 6
6 6 6 6 6 6 5 5 5 4 3 3 3 2 2 1 1 2 3 2 2 2 2 2 3 4 5 4 5 7 6 7 7 5 4 5 6 6 7 7 7 7 8
6 6 6 6 6 5 5 5 5 4 4 4 3 3 2 2 2 2 3 2 2 1 1 1 2 3 4 5 4 4 4 4 5 4 3 4 5 6 6 7 8 8 8
6 6 6 6 6 6 6 6 5 4 4 3 3 3 3 3 3 3 2 1 1 2 1 1 1 2 6 7 5 4 4 4 6 7 8 8 10 11 10 5 6 7 7
6 6 5 6 6 7 6 6 4 4 4 4 3 3 3 3 4 4 3 1 2 2 1 1 2 3 6 7 4 4 4 5 5 6 7 8 7 8 10 6 5 6 6
5 4 4 5 5 5 5 4 4 4 4 4 4 3 4 4 4 5 4 2 2 1 1 1 1 4 6 7 6 3 5 6 4 5 5 5 5 5 5 5 5 5 6
4 4 4 5 4 4 4 4 4 5 5 4 4 4 3 4 5 5 5 5 3 1 2 1 2 4 6 7 5 5 7 6 3 4 4 4 5 5 5 6 7 7 7
4 4 4 4 4 4 5 5 4 5 4 4 4 4 3 3 4 6 6 5 5 2 2 3 4 5 6 4 5 6 5 3 3 3 4 5 4 5 6 6 7 8 9
4 4 4 4 4 4 4 4 5 5 5 5 5 4 3 3 3 3 3 3 4 3 2 3 4 5 4 4 4 3 2 2 3 3 4 5 5 5 6 6 7 8 7
5 4 4 4 5 5 5 5 5 5 6 6 5 4 4 4 5 6 4 3 3 3 2 1 1 1 1 2 2 2 2 3 3 3 4 5 6 6 7 6 6 7 7
5 5 4 4 4 4 4 3 5 5 6 7 6 5 4 5 6 6 6 6 6 5 3 1 2 2 2 2 2 2 2 2 3 4 4 5 6 7 7 7 7 7 8
6 5 4 4 5 5 5 5 3 3 6 7 7 8 7 7 7 7 6 6 6 6 3 2 2 2 2 2 2 2 3 3 3 4 4 5 5 6 7 8 8 8 8
5 6 5 4 5 5 5 5 5 4 4 4 6 9 9 8 8 7 7 5 4 4 3 3 3 2 2 2 2 3 3 3 3 4 4 5 5 6 7 7 8 8 9
5 4 4 4 4 4 4 4 4 5 5 4 3 5 8 8 8 8 7 4 4 4 3 3 3 2 2 2 3 3 4 4 4 4 5 5 5 6 7 7 8 12 11
5 7 6 4 4 4 4 5 5 5 5 5 5 5 4 5 4 5 5 4 4 4 4 3 3 3 3 3 3 3 4 4 4 4 5 5 5 6 7 9 8 9 9
5 5 7 5 5 5 5 5 5 5 5 5 5 6 8 5 5 5 5 5 5 5 4 3 3 3 3 3 3 4 5 5 5 5 5 5 5 6 7 7 8 9 9
5 5 5 5 5 5 5 5 6 6 6 6 4 5 10 5 5 5 5 5 4 4 4 4 3 3 3 3 3 4 5 5 5 5 5 5 6 6 7 7 8 8 9
5 6 5 5 5 8 7 6 6 6 6 6 5 5 5 5 5 5 4 4 4 3 3 3 3 3 3 4 4 4 5 6 6 6 6 6 6 7 7 8 9 10 10
6 6 6 6 6 6 6 6 6 6 6 6 5 5 5 5 5 5 4 3 3 3 3 3 4 5 5 4 5 6 7 8 8 7 7 7 7 7 7 8 9 10 9
6 6 6 6 6 6 6 6 6 6 6 6 6 5 5 5 4 4 4 4 4 4 4 4 4 5 6 6 7 7 9 10 10 8 7 6 6 7 7 8 8 9 9
6 6 6 6 6 6 6 6 6 6 6 6 5 5 5 5 5 4 4 4 4 4 4 4 5 6 6 7 8 9 10 10 10 10 8 5 6 6 7 7 9 8 9
Wind_Direction
206 213 222 215 217 231 232 238 249 270 286 295 304 318 327 330 336 339 335 334 332 335 340 339 338 344 339 335 333 329 319 302 286 297 315 326 333 335 336 335 332 332 331
205 207 216 218 219 223 226 234 241 263 276 277 292 307 316 328 338 340 337 338 339 345 350 352 350 351 347 341 339 334 328 317 298 300 311 326 328 328 327 331 334 334 328
199 201 210 218 221 222 220 225 228 241 268 279 279 290 301 315 332 341 337 334 344 348 351 356 357 1 354 345 342 342 338 335 324 308 312 321 320 328 331 334 331 329 326
199 205 213 217 218 217 216 219 221 222 234 255 263 280 289 312 338 343 336 336 343 347 357 2 9 10 354 345 347 346 343 341 335 326 319 321 323 329 340 334 328 327 321
199 209 218 217 209 206 210 214 215 218 223 226 233 255 290 327 345 355 347 340 341 349 357 360 10 7 353 352 348 348 347 338 330 326 321 324 329 338 337 331 323 321 313
205 213 213 210 205 205 209 210 209 211 210 209 219 229 244 254 327 334 337 325 329 342 343 344 343 352 360 359 354 352 348 336 327 320 318 319 321 324 325 325 322 323 313
212 215 210 206 207 207 205 204 207 210 209 210 215 212 223 208 241 305 318 318 317 324 330 336 342 354 5 357 348 348 348 345 336 318 313 314 316 322 320 316 314 309 297
213 216 211 205 207 204 203 209 210 207 207 208 214 211 216 222 225 258 299 314 298 296 317 340 349 351 351 346 338 340 341 344 336 337 320 313 318 313 305 302 302 303 293
217 218 212 206 205 203 207 214 212 205 206 205 204 200 207 229 229 246 271 291 283 296 308 8 13 352 341 344 344 337 336 336 343 343 335 328 329 332 333 327 324 321 312
225 221 212 206 205 207 209 209 205 199 203 199 209 206 206 218 231 238 251 254 270 284 306 334 338 336 337 341 344 341 332 328 332 336 338 336 339 343 349 354 336 321 315
225 216 209 207 208 207 204 200 193 191 193 198 207 217 214 219 229 231 237 232 246 266 281 292 311 326 330 333 340 338 320 325 332 334 333 334 341 348 348 344 336 318 308
219 213 210 208 208 204 199 198 187 186 196 206 210 224 225 221 215 222 231 238 247 241 258 265 287 313 320 324 329 327 331 340 342 334 334 334 334 331 326 321 314 304 289
222 220 213 207 205 198 193 192 190 192 200 208 207 218 224 208 209 220 229 239 248 244 244 270 289 302 310 315 318 329 340 343 335 333 328 323 320 316 317 316 314 307 299
227 226 213 204 203 197 195 191 195 201 204 206 207 212 213 203 200 201 212 235 243 254 266 277 294 306 313 313 319 331 338 330 332 320 315 313 316 320 323 323 322 323 316
231 227 220 211 202 198 200 202 204 207 201 201 205 199 197 211 213 204 198 209 211 225 244 256 272 293 297 304 309 315 331 341 334 323 320 320 321 324 323 324 320 319 313
229 226 220 215 207 201 201 209 208 204 209 209 205 202 210 214 216 218 225 233 238 241 243 248 259 266 277 290 297 307 316 318 318 315 315 316 318 319 319 320 318 316 313
225 226 221 214 207 204 199 197 207 213 213 216 215 216 219 223 227 228 233 238 239 237 234 236 245 251 264 277 287 293 298 304 308 305 305 308 311 312 313 314 315 314 312
224 224 220 216 209 205 202 199 196 200 211 223 222 223 226 229 229 229 230 231 238 230 220 226 234 243 254 267 276 285 292 297 298 298 297 298 301 304 306 307 309 308 309
224 223 218 213 209 205 200 199 199 202 208 211 205 217 222 225 227 229 222 216 220 226 223 222 225 231 243 256 267 275 280 285 288 289 289 291 295 299 300 301 303 306 309
226 224 217 210 206 202 201 203 204 204 206 208 211 209 198 200 212 218 214 211 217 223 221 220 224 229 238 247 256 266 274 279 283 284 287 290 293 295 296 298 300 303 304
220 221 213 212 209 206 206 207 207 206 209 214 215 208 202 200 210 212 212 212 214 217 217 219 221 229 237 242 250 261 269 276 279 281 283 287 289 292 293 294 296 298 300
214 217 212 210 209 208 210 208 208 209 211 213 213 215 215 209 209 213 214 214 209 206 205 209 220 228 231 233 241 256 265 272 276 279 283 285 287 289 292 294 297 300 302
213 213 214 212 208 215 217 211 209 209 210 208 207 207 209 208 212 213 212 206 201 200 199 204 218 231 238 237 241 243 255 264 269 272 278 282 284 287 291 294 297 300 302
216 215 213 212 208 208 210 211 210 209 208 207 208 209 208 206 207 208 203 197 196 199 202 209 219 229 239 248 253 254 258 265 271 269 267 272 279 285 289 292 295 297 299
217 216 214 212 211 211 211 210 210 208 208 208 208 208 204 202 203 203 200 198 198 206 214 219 226 233 241 250 258 263 269 276 282 277 270 270 274 280 286 289 293 297 300
219 218 216 213 212 211 210 210 209 207 208 208 205 202 200 200 201 200 200 200 202 208 216 225 230 239 249 257 263 269 277 283 288 290 286 276 277 283 289 290 293 297 300
Height
1496 1495 1495 1494 1494 1493 1492 1492 1491 1490 1489 1488 1487 1485 1484 1483 1482 1481 1480 1479 1478 1477 1476 1475 1474 1473 1471 1470 1469 1468 1467 1466 1463 1460 1459 1458 1456 1454 1452 1451 1449 1447 1446
1493 1492 1491 1491 1490 1490 1489 1488 1488 1487 1486 1485 1484 1483 1481 1480 1479 1478 1477 1476 1475 1474 1473 1472 1470 1469 1468 1467 1465 1464 1463 1462 1460 1457 1455 1454 1452 1450 1448 1447 1445 1443 1441
1489 1488 1488 1487 1487 1486 1485 1485 1484 1483 1482 1481 1480 1479 1478 1478 1476 1475 1474 1473 1472 1471 1470 1469 1467 1466 1465 1464 1462 1461 1459 1458 1456 1454 1452 1450 1448 1446 1444 1443 1441 1439 1437
1485 1485 1484 1484 1483 1482 1482 1481 1480 1480 1479 1478 1477 1476 1475 1475 1474 1473 1471 1470 1469 1468 1467 1466 1464 1463 1462 1460 1459 1458 1456 1454 1453 1451 1449 1447 1445 1442 1441 1438 1436 1434 1433
1481 1481 1480 1480 1479 1479 1478 1478 1477 1476 1475 1475 1474 1473 1472 1471 1471 1470 1469 1467 1466 1465 1464 1463 1461 1460 1459 1457 1456 1455 1453 1451 1450 1448 1446 1443 1441 1439 1437 1435 1432 1430 1427
1477 1476 1476 1475 1475 1475 1474 1474 1473 1472 1472 1471 1470 1470 1469 1468 1467 1466 1465 1464 1463 1462 1461 1460 1459 1457 1456 1454 1453 1452 1450 1449 1447 1445 1443 1441 1439 1437 1434 1432 1429 1426 1422
1473 1472 1471 1471 1471 1470 1470 1469 1469 1468 1468 1467 1467 1466 1465 1465 1464 1463 1462 1461 1460 1459 1458 1457 1455 1454 1453 1451 1450 1448 1447 1446 1445 1443 1440 1438 1436 1434 1431 1428 1426 1423 1420
1468 1467 1467 1466 1466 1466 1465 1465 1465 1464 1464 1463 1463 1462 1462 1461 1460 1460 1459 1458 1456 1455 1454 1453 1452 1451 1450 1448 1447 1445 1444 1443 1441 1439 1437 1435 1433 1431 1429 1426 1423 1419 1416
1463 1462 1462 1462 1461 1461 1460 1460 1460 1460 1459 1459 1459 1458 1458 1457 1457 1456 1455 1454 1453 1452 1451 1450 1449 1448 1446 1445 1444 1442 1440 1439 1437 1436 1434 1432 1430 1427 1425 1422 1419 1415 1411
1458 1457 1457 1457 1456 1456 1456 1456 1455 1455 1455 1455 1454 1454 1454 1453 1453 1452 1452 1450 1449 1449 1448 1447 1446 1444 1443 1442 1440 1439 1437 1435 1433 1431 1430 1428 1426 1423 1421 1419 1416 1413 1409
1453 1452 1452 1452 1451 1451 1451 1451 1450 1450 1450 1450 1450 1450 1450 1450 1449 1449 1448 1447 1446 1445 1444 1443 1442 1441 1440 1439 1437 1436 1435 1433 1430 1428 1426 1424 1422 1420 1418 1415 1413 1410 1407
1448 1447 1447 1446 1446 1446 1446 1445 1445 1446 1445 1445 1445 1445 1445 1445 1445 1445 1444 1443 1442 1441 1441 1440 1439 1438 1437 1436 1435 1433 1432 1430 1428 1426 1423 1421 1419 1416 1414 1412 1409 1406 1404
1443 1442 1442 1441 1441 1441 1441 1440 1440 1440 1440 1440 1440 1440 1441 1441 1441 1441 1440 1440 1439 1438 1437 1436 1436 1435 1434 1433 1431 1430 1428 1427 1425 1422 1420 1418 1416 1413 1411 1408 1405 1402 1400
1438 1437 1437 1436 1436 1436 1436 1436 1436 1435 1435 1436 1436 1436 1436 1436 1437 1437 1436 1436 1435 1434 1433 1433 1432 1431 1431 1429 1428 1427 1425 1423 1422 1420 1417 1415 1413 1410 1407 1404 1401 1397 1394
1433 1432 1431 1431 1431 1430 1430 1431 1431 1431 1431 1432 1432 1432 1432 1432 1432 1433 1432 1431 1431 1431 1430 1429 1429 1428 1427 1426 1425 1423 1422 1420 1419 1417 1414 1412 1409 1406 1404 1401 1398 1394 1391
1428 1427 1426 1426 1425 1425 1426 1426 1426 1427 1427 1427 1427 1428 1427 1428 1428 1428 1428 1428 1427 1427 1426 1426 1425 1424 1423 1422 1421 1420 1418 1417 1415 1413 1411 1409 1406 1403 1400 1397 1395 1391 1387
1423 1422 1421 1420 1420 1420 1420 1421 1421 1422 1422 1423 1423 1423 1424 1424 1424 1424 1424 1424 1423 1423 1422 1422 1421 1421 1420 1419 1418 1416 1415 1414 1412 1410 1408 1406 1403 1400 1397 1394 1391 1388 1384
1418 1417 1416 1416 1415 1415 1416 1416 1417 1417 1417 1417 1418 1419 1419 1419 1419 1419 1419 1420 1419 1419 1418 1418 1417 1417 1416 1415 1414 1413 1412 1410 1408 1407 1405 1402 1400 1397 1394 1391 1388 1385 1381
1412 1411 1411 1411 1411 1411 1411 1412 1412 1412 1413 1413 1413 1414 1415 1415 1415 1415 1415 1415 1414 1414 1414 1414 1413 1413 1412 1411 1411 1410 1408 1407 1405 1403 1401 1399 1397 1394 1391 1388 1385 1382 1378
1407 1407 1406 1406 1406 1406 1406 1407 1407 1408 1408 1408 1409 1409 1410 1410 1410 1410 1410 1410 1410 1410 1410 1410 1410 1409 1408 1408 1407 1406 1404 1403 1401 1399 1397 1395 1393 1391 1388 1385 1382 1378 1374
1402 1402 1401 1401 1401 1401 1402 1402 1403 1403 1404 1404 1404 1405 1405 1405 1405 1406 1406 1406 1406 1406 1406 1406 1405 1405 1404 1403 1402 1401 1400 1399 1397 1395 1393 1392 1389 1387 1384 1381 1378 1375 1371
1397 1397 1396 1396 1396 1397 1397 1398 1398 1399 1399 1399 1400 1400 1400 1401 1401 1401 1401 1401 1402 1402 1402 1402 1401 1401 1400 1399 1398 1397 1396 1395 1393 1392 1390 1388 1386 1383 1381 1378 1375 1371 1367
1392 1392 1391 1391 1392 1392 1392 1393 1393 1394 1394 1395 1395 1396 1396 1396 1396 1397 1397 1397 1397 1398 1398 1397 1397 1397 1396 1395 1394 1393 1392 1391 1389 1388 1386 1384 1382 1379 1377 1374 1371 1368 1364
1387 1386 1386 1386 1387 1387 1388 1388 1389 1389 1390 1390 1391 1391 1391 1392 1392 1392 1393 1393 1393 1393 1393 1393 1393 1393 1392 1391 1391 1389 1388 1387 1386 1384 1382 1380 1378 1376 1373 1371 1368 1365 1361
1382 1381 1381 1381 1381 1382 1383 1383 1384 1384 1385 1385 1386 1386 1387 1387 1388 1388 1388 1389 1389 1389 1389 1389 1389 1388 1388 1387 1387 1386 1384 1383 1382 1380 1379 1377 1374 1372 1370 1367 1364 1361 1358
1376 1376 1376 1376 1377 1377 1378 1378 1379 1380 1380 1381 1381 1382 1382 1383 1383 1384 1384 1384 1385 1385 1385 1385 1385 1384 1384 1383 1382 1382 1380 1379 1378 1377 1375 1373 1371 1369 1367 1364 1361 1358 1355